EW5239 Weather Reports


Display with metric or nautical units.
time (UTC)temp
F
wind
direction
speed
MPH
gust
MPH
rain 1hr
in
rain 24hr
in
rain mn
in
humidity
%
barometer
mb
20260902005453 55 216 2.0 3.0 0.00 0.00 0.00 92 1018.8
20260902005006 56 237 0.0 3.0 0.00 0.01 0.00 89 1016.8
20260902004505 56 242 1.0 3.0 0.00 0.01 0.00 89 1016.9
20260902004454 55 216 2.0 4.0 0.00 0.00 0.00 92 1018.8
20260902004006 56 229 1.0 3.0 0.00 0.01 0.00 89 1016.9
20260902002506 56 234 1.0 3.0 0.00 0.01 0.00 89 1016.7
20260902002453 56 223 2.0 3.0 0.00 0.00 0.00 91 1018.9
20260902002006 56 237 1.0 2.0 0.00 0.01 0.00 89 1016.7
20260902001953 56 200 2.0 2.0 0.00 0.00 0.00 90 1018.8
20260902001506 56 231 0.0 2.0 0.00 0.01 0.00 89 1016.6
20260902001454 56 201 2.0 3.0 0.00 0.00 0.00 90 1018.9
20260902001005 56 225 2.0 3.0 0.00 0.01 0.00 89 1016.7
20260902000506 56 225 2.0 4.0 0.00 0.01 0.00 88 1016.7
20260902000454 55 229 3.0 4.0 0.00 0.00 0.00 89 1018.8
20260902000006 56 225 1.0 4.0 0.00 0.01 0.00 88 1016.9
20260901235959 55 262 2.0 4.0 0.00 0.00 0.00 89 1018.8
20260901235506 56 225 0.0 2.0 0.00 0.01 0.00 88 1016.7
20260901235454 56 232 1.0 2.0 0.00 0.00 0.00 89 1018.9
20260901235005 56 225 0.0 2.0 0.00 0.01 0.00 88 1016.8
20260901234953 56 225 1.0 2.0 0.00 0.00 0.00 89 1018.6
20260901234454 56 225 1.0 2.0 0.00 0.00 0.00 89 1018.9
20260901234006 56 0 0.0 0.0 0.00 0.01 0.00 88 1016.7
20260901233953 56 228 1.0 2.0 0.00 0.00 0.00 89 1018.8
20260901233505 56 225 0.0 2.0 0.00 0.01 0.00 88 1016.7
20260901233453 56 221 2.0 2.0 0.00 0.00 0.00 88 1018.8
20260901233006 56 225 0.0 2.0 0.00 0.01 0.00 88 1016.7
20260901232954 56 214 1.0 2.0 0.00 0.00 0.00 88 1018.6
20260901232506 56 0 0.0 0.0 0.00 0.01 0.00 87 1016.7
20260901232453 56 218 1.0 2.0 0.00 0.00 0.00 88 1018.7
20260901232006 56 0 0.0 0.0 0.00 0.01 0.00 87 1016.6
20260901231954 56 225 1.0 2.0 0.00 0.00 0.00 88 1018.4
20260901231506 57 0 0.0 0.0 0.00 0.01 0.00 87 1016.7
20260901231454 56 225 1.0 2.0 0.00 0.00 0.00 87 1018.7
20260901231005 57 0 0.0 0.0 0.00 0.01 0.00 87 1016.7
20260901230454 57 208 1.0 2.0 0.00 0.00 0.00 87 1018.8
20260901230006 57 0 0.0 0.0 0.00 0.01 0.00 86 1016.7
20260901230000 57 182 1.0 2.0 0.00 0.00 0.00 86 1018.5
20260901225506 57 0 0.0 0.0 0.00 0.01 0.00 86 1016.7
20260901225453 57 181 1.0 2.0 0.00 0.00 0.00 86 1018.6
20260901225006 57 0 0.0 0.0 0.00 0.01 0.00 85 1016.6
20260901224954 57 181 0.0 1.0 0.00 0.00 0.00 85 1018.6
20260901224506 57 0 0.0 0.0 0.00 0.01 0.00 85 1016.6
20260901224453 58 171 0.0 2.0 0.00 0.00 0.00 85 1018.6
20260901224006 58 0 0.0 0.0 0.00 0.01 0.00 85 1016.6
20260901223505 58 0 0.0 0.0 0.00 0.01 0.00 85 1016.7
20260901223454 58 193 1.0 2.0 0.00 0.00 0.00 85 1018.7
20260901223006 58 0 0.0 0.0 0.00 0.01 0.00 84 1016.6
20260901222506 58 0 0.0 0.0 0.00 0.01 0.00 84 1016.7
20260901222454 58 199 1.0 2.0 0.00 0.00 0.00 84 1018.6
20260901222005 58 0 0.0 0.0 0.00 0.01 0.00 84 1016.8
20260901221953 58 208 1.0 2.0 0.00 0.00 0.00 84 1018.7
20260901221506 58 0 0.0 0.0 0.00 0.01 0.00 84 1016.7
20260901221454 59 237 1.0 2.0 0.00 0.00 0.00 84 1018.6
20260901221006 59 0 0.0 0.0 0.00 0.01 0.00 84 1016.5
20260901220954 59 235 2.0 2.0 0.00 0.00 0.00 84 1018.8
20260901220506 59 270 1.0 4.0 0.00 0.01 0.00 83 1016.7
20260901220453 59 244 2.0 4.0 0.00 0.00 0.00 83 1018.6
20260901220007 59 267 1.0 4.0 0.00 0.01 0.00 83 1016.6
20260901220001 59 237 2.0 4.0 0.00 0.00 0.00 83 1018.5
20260901215506 59 260 2.0 4.0 0.00 0.01 0.01 83 1016.6
20260901215454 59 243 3.0 4.0 0.00 0.00 0.00 82 1018.6
20260901215006 59 279 4.0 6.0 0.00 0.01 0.01 83 1016.7
20260901214954 59 252 4.0 6.0 0.00 0.00 0.00 82 1018.6
20260901214506 59 282 4.0 6.0 0.00 0.01 0.01 83 1016.7
20260901214453 59 262 5.0 6.0 0.00 0.00 0.00 82 1018.7
20260901214006 60 264 5.0 5.0 0.00 0.01 0.01 83 1016.7
20260901213954 60 265 5.0 6.0 0.00 0.00 0.00 83 1018.9
20260901213506 60 255 5.0 6.0 0.00 0.01 0.01 83 1016.7
20260901213453 60 249 5.0 6.0 0.00 0.00 0.00 83 1018.7
20260901213006 60 245 4.0 6.0 0.00 0.01 0.01 83 1016.7
20260901212954 60 247 5.0 6.0 0.00 0.00 0.00 83 1018.7
20260901212506 60 243 4.0 5.0 0.00 0.01 0.01 83 1016.7
20260901212006 60 240 3.0 5.0 0.00 0.01 0.01 83 1016.6
20260901211954 60 240 4.0 6.0 0.00 0.00 0.00 83 1018.8
20260901211506 60 230 1.0 4.0 0.00 0.01 0.01 83 1016.8
20260901211454 60 245 3.0 4.0 0.00 0.00 0.00 83 1018.8
20260901211006 60 264 0.0 4.0 0.00 0.01 0.01 83 1016.8
20260901210953 60 233 3.0 4.0 0.00 0.00 0.00 83 1018.8
20260901210505 60 226 1.0 4.0 0.00 0.01 0.01 83 1016.7
20260901210453 60 212 3.0 4.0 0.00 0.00 0.00 84 1018.5
20260901210006 60 221 1.0 4.0 0.00 0.01 0.01 83 1016.8
20260901205453 60 233 3.0 4.0 0.00 0.00 0.00 84 1018.7
20260901205005 60 218 2.0 5.0 0.00 0.01 0.01 83 1016.7
20260901204953 60 231 3.0 5.0 0.00 0.00 0.00 84 1018.7
20260901204506 60 216 2.0 5.0 0.00 0.01 0.01 83 1016.7
20260901204454 60 220 3.0 5.0 0.00 0.00 0.00 83 1018.7
20260901203954 60 200 2.0 4.0 0.00 0.00 0.00 83 1018.5
20260901203505 60 0 0.0 0.0 0.00 0.01 0.01 83 1016.7
20260901203453 60 217 2.0 2.0 0.00 0.00 0.00 83 1018.6
20260901203005 61 0 0.0 0.0 0.00 0.01 0.01 83 1016.5
20260901202954 60 223 2.0 3.0 0.00 0.00 0.00 83 1018.8
20260901202506 61 225 0.0 2.0 0.00 0.01 0.01 82 1016.5
20260901201953 61 224 2.0 3.0 0.00 0.00 0.00 82 1018.6
20260901201455 61 225 2.0 3.0 0.00 0.00 0.00 82 1018.5
20260901200954 61 225 2.0 3.0 0.00 0.00 0.00 82 1018.5
20260901200454 61 226 2.0 3.0 0.00 0.00 0.00 82 1018.6
20260901200005 62 0 0.0 0.0 0.00 0.01 0.01 82 1016.7
20260901195505 62 0 0.0 0.0 0.00 0.01 0.01 82 1016.8
20260901195453 62 237 3.0 4.0 0.00 0.00 0.00 82 1018.8
20260901195005 62 0 0.0 0.0 0.00 0.01 0.01 82 1016.8
20260901194953 62 232 3.0 4.0 0.00 0.00 0.00 82 1018.7
20260901194506 62 0 0.0 0.0 0.00 0.01 0.01 82 1016.7
20260901194455 62 222 3.0 4.0 0.00 0.00 0.00 82 1018.6
20260901194006 62 225 0.0 1.0 0.00 0.01 0.01 82 1016.8
20260901193954 61 219 3.0 4.0 0.00 0.00 0.00 82 1018.6
20260901193453 62 225 3.0 3.0 0.00 0.00 0.00 82 1018.5
20260901193006 62 181 0.0 2.0 0.00 0.01 0.01 81 1016.8
20260901192506 62 225 0.0 2.0 0.00 0.01 0.01 81 1016.8
20260901192454 62 234 2.0 3.0 0.00 0.00 0.00 82 1019.0
20260901192005 62 255 1.0 3.0 0.00 0.01 0.01 81 1016.8
20260901191953 62 231 2.0 3.0 0.00 0.00 0.00 81 1018.8
20260901191506 62 267 1.0 3.0 0.00 0.01 0.01 81 1016.7
20260901191453 62 240 2.0 3.0 0.00 0.00 0.00 81 1018.8
20260901191005 62 225 0.0 1.0 0.00 0.01 0.01 81 1016.7
20260901190453 62 226 2.0 3.0 0.00 0.00 0.00 81 1018.7
20260901190006 62 0 0.0 0.0 0.00 0.01 0.01 81 1016.7
20260901190001 62 224 2.0 3.0 0.00 0.00 0.00 81 1018.8
20260901185506 62 225 0.0 2.0 0.00 0.01 0.01 81 1016.8
20260901185455 62 229 2.0 3.0 0.00 0.00 0.00 81 1018.7
20260901185005 62 225 0.0 2.0 0.00 0.01 0.01 81 1016.6
20260901184505 62 225 0.0 2.0 0.00 0.01 0.01 80 1016.6
20260901184454 62 219 2.0 3.0 0.00 0.00 0.00 81 1018.6
20260901184005 62 225 0.0 2.0 0.00 0.01 0.01 80 1016.6
20260901183954 62 225 2.0 3.0 0.00 0.00 0.00 80 1018.6
20260901183453 62 228 2.0 2.0 0.00 0.00 0.00 80 1018.5
20260901183005 62 225 0.0 2.0 0.00 0.01 0.01 79 1016.6
20260901182954 62 231 2.0 2.0 0.00 0.00 0.00 78 1018.4
20260901182505 62 0 0.0 0.0 0.00 0.01 0.01 78 1016.5
20260901181954 62 212 1.0 2.0 0.00 0.00 0.00 77 1018.3
20260901181454 63 218 1.0 2.0 0.00 0.00 0.00 75 1018.3
20260901180506 63 0 0.0 0.0 0.00 0.01 0.01 74 1016.3
20260901180454 63 181 1.0 2.0 0.00 0.00 0.00 74 1018.3
20260901180006 63 0 0.0 0.0 0.00 0.01 0.01 74 1016.3
20260901180001 63 181 1.0 2.0 0.00 0.00 0.00 74 1018.1
20260901175505 64 0 0.0 0.0 0.00 0.01 0.01 74 1016.2
20260901175454 64 205 1.0 2.0 0.00 0.00 0.00 73 1018.0
20260901175005 64 234 1.0 4.0 0.00 0.01 0.01 73 1016.1
20260901174953 64 240 2.0 4.0 0.00 0.00 0.00 73 1018.1
20260901174505 64 232 2.0 4.0 0.00 0.01 0.01 72 1016.2
20260901174454 64 265 3.0 4.0 0.00 0.00 0.00 72 1018.0
20260901174007 64 243 3.0 4.0 0.00 0.01 0.01 72 1016.1
20260901173505 65 258 4.0 4.0 0.00 0.01 0.01 71 1016.1
20260901173453 65 263 4.0 4.0 0.00 0.00 0.00 71 1017.8
20260901173006 65 256 4.0 4.0 0.00 0.01 0.01 71 1016.0
20260901172953 65 268 4.0 4.0 0.00 0.00 0.00 70 1017.9
20260901172506 65 257 4.0 5.0 0.00 0.01 0.01 71 1016.2
20260901172454 65 260 5.0 5.0 0.00 0.00 0.00 70 1017.8
20260901172006 65 281 4.0 5.0 0.00 0.01 0.01 70 1016.0
20260901171953 65 262 5.0 5.0 0.00 0.00 0.00 70 1017.9
20260901171506 65 288 5.0 5.0 0.00 0.01 0.01 70 1016.0
20260901171454 65 264 5.0 6.0 0.00 0.00 0.00 69 1018.0
20260901171006 65 262 5.0 6.0 0.00 0.01 0.01 69 1016.0
20260901170954 65 272 5.0 6.0 0.00 0.00 0.00 69 1017.7
20260901170453 65 280 6.0 7.0 0.00 0.00 0.00 68 1017.5
20260901165959 65 274 7.0 10.0 0.00 0.00 0.00 68 1017.8
20260901165454 65 273 7.0 10.0 0.00 0.00 0.00 68 1017.7
20260901164954 66 264 6.0 8.0 0.00 0.00 0.00 68 1017.7
20260901164506 66 270 7.0 8.0 0.00 0.01 0.01 68 1015.7
20260901164006 66 290 8.0 12.0 0.00 0.01 0.01 67 1015.8
20260901163954 66 298 8.0 12.0 0.00 0.00 0.00 67 1017.6
20260901163505 66 270 9.0 12.0 0.00 0.01 0.01 66 1015.8
20260901163453 66 300 8.0 12.0 0.00 0.00 0.00 65 1017.7
20260901163005 67 263 9.0 11.0 0.00 0.01 0.01 65 1015.8
20260901162954 67 284 9.0 11.0 0.00 0.00 0.00 65 1017.6
20260901162505 67 268 10.0 15.0 0.00 0.01 0.01 65 1015.7
20260901162454 67 289 11.0 15.0 0.00 0.00 0.00 65 1017.6
20260901161953 67 298 12.0 15.0 0.00 0.00 0.00 64 1017.7
20260901161505 67 277 13.0 16.0 0.00 0.01 0.01 65 1015.7
20260901161454 67 293 13.0 16.0 0.00 0.00 0.00 64 1017.6
20260901161005 67 292 12.0 16.0 0.00 0.01 0.01 66 1015.6
20260901160953 67 293 12.0 16.0 0.00 0.00 0.00 65 1017.7
20260901160505 67 297 10.0 14.0 0.00 0.01 0.01 66 1015.7
20260901160454 67 303 10.0 13.0 0.00 0.00 0.00 65 1017.9
20260901160006 67 283 10.0 14.0 0.00 0.01 0.01 67 1015.7
20260901160000 67 299 10.0 12.0 0.00 0.00 0.00 66 1017.5
20260901155506 67 293 9.0 13.0 0.00 0.01 0.01 67 1015.5
20260901155453 67 287 10.0 12.0 0.00 0.00 0.00 66 1017.5
20260901155006 67 281 10.0 12.0 0.00 0.01 0.01 67 1015.6
20260901154005 67 287 10.0 13.0 0.00 0.01 0.01 67 1015.7
20260901153953 67 267 10.0 13.0 0.00 0.00 0.00 66 1017.3
20260901153453 67 274 11.0 15.0 0.00 0.00 0.00 66 1017.5
20260901153005 67 281 12.0 16.0 0.00 0.01 0.01 66 1015.5
20260901152953 67 274 12.0 15.0 0.00 0.00 0.00 65 1017.4
20260901152505 68 283 12.0 16.0 0.00 0.01 0.01 65 1015.5
20260901152454 67 276 12.0 15.0 0.00 0.00 0.00 65 1017.6
20260901152006 68 296 12.0 16.0 0.00 0.01 0.01 65 1015.4
20260901151954 68 290 12.0 16.0 0.00 0.00 0.00 65 1017.6
20260901151505 68 322 13.0 19.0 0.00 0.01 0.01 63 1015.5
20260901151454 68 286 13.0 20.0 0.00 0.00 0.00 64 1017.2
20260901151006 69 314 14.0 20.0 0.00 0.01 0.01 63 1015.3
20260901150953 68 294 15.0 20.0 0.00 0.00 0.00 62 1017.2
20260901150506 69 299 14.0 20.0 0.00 0.01 0.01 63 1015.2
20260901150453 69 295 14.0 19.0 0.00 0.00 0.00 62 1017.3
20260901150000 69 302 14.0 17.0 0.00 0.00 0.00 62 1017.0
20260901145505 69 286 12.0 15.0 0.00 0.01 0.01 63 1015.2
20260901145454 69 311 12.0 17.0 0.00 0.00 0.00 62 1017.1
20260901144954 69 310 11.0 14.0 0.00 0.00 0.00 64 1017.2
20260901144505 68 292 12.0 19.0 0.00 0.01 0.01 64 1015.2
20260901144454 68 307 13.0 20.0 0.00 0.00 0.00 64 1017.1
20260901144006 68 271 14.0 19.0 0.00 0.01 0.01 64 1015.3
20260901143954 68 282 15.0 20.0 0.00 0.00 0.00 63 1017.3
20260901143506 68 269 14.0 19.0 0.00 0.01 0.01 64 1015.2
20260901143453 68 284 15.0 19.0 0.00 0.01 0.00 63 1017.1
20260901143006 69 284 15.0 25.0 0.00 0.01 0.01 65 1015.4
20260901142506 68 272 14.0 25.0 0.00 0.01 0.01 64 1015.2
20260901142006 69 265 12.0 17.0 0.00 0.01 0.01 66 1015.2
20260901141953 68 271 12.0 17.0 0.00 0.01 0.00 65 1017.3
20260901141505 69 283 14.0 16.0 0.00 0.01 0.01 66 1015.2
20260901141454 68 270 14.0 17.0 0.00 0.01 0.00 65 1017.2
20260901141005 68 309 12.0 15.0 0.00 0.01 0.01 67 1015.4
20260901140954 68 288 13.0 15.0 0.00 0.01 0.00 66 1017.1
20260901140505 67 298 12.0 16.0 0.00 0.01 0.01 69 1015.3
20260901140453 67 296 12.0 15.0 0.00 0.01 0.00 68 1017.3
20260901140005 67 282 11.0 16.0 0.00 0.01 0.01 69 1015.2
20260901140000 67 304 12.0 15.0 0.00 0.01 0.00 69 1017.4
20260901135505 67 281 11.0 15.0 0.00 0.01 0.01 70 1015.3
20260901134954 67 302 13.0 21.0 0.00 0.01 0.00 69 1017.3
20260901134505 67 288 13.0 20.0 0.00 0.01 0.01 68 1015.2
20260901134005 67 276 12.0 20.0 0.00 0.01 0.01 69 1015.4
20260901133954 67 301 13.0 21.0 0.00 0.01 0.00 68 1017.3
20260901133506 67 263 11.0 16.0 0.00 0.01 0.01 70 1015.5
20260901133453 67 289 11.0 17.0 0.00 0.01 0.00 68 1017.0
20260901133006 67 265 9.0 12.0 0.00 0.01 0.01 74 1015.5
20260901132954 67 272 9.0 12.0 0.00 0.01 0.00 74 1017.4
20260901132506 66 265 9.0 11.0 0.00 0.01 0.01 74 1015.6
20260901131953 65 262 8.0 12.0 0.00 0.01 0.00 74 1017.4
20260901131506 66 295 7.0 9.0 0.00 0.01 0.01 75 1015.4
20260901131454 65 290 8.0 11.0 0.00 0.01 0.00 75 1017.3
20260901131006 65 270 10.0 15.0 0.00 0.01 0.01 75 1015.5
20260901130953 65 270 11.0 15.0 0.00 0.01 0.00 75 1017.4
20260901130506 65 262 11.0 15.0 0.00 0.01 0.01 75 1015.5
20260901130454 64 260 12.0 15.0 0.00 0.01 0.00 74 1017.4
20260901130000 64 277 10.0 15.0 0.00 0.01 0.00 75 1017.5
20260901125506 64 287 10.0 15.0 0.00 0.02 0.01 75 1015.6
20260901125454 64 292 11.0 15.0 0.00 0.01 0.00 75 1017.4
20260901125006 64 296 12.0 15.0 0.00 0.02 0.01 74 1015.6
20260901124954 64 296 13.0 17.0 0.00 0.02 0.00 74 1017.3
20260901124506 65 305 12.0 15.0 0.00 0.04 0.01 72 1015.7
20260901124454 64 300 13.0 17.0 0.00 0.02 0.00 72 1017.6
20260901124005 65 313 13.0 17.0 0.00 0.04 0.01 71 1015.7
20260901123505 66 306 14.0 17.0 0.00 0.04 0.01 69 1015.6
20260901123454 65 248 14.0 17.0 0.00 0.05 0.00 69 1017.3
20260901123005 66 294 12.0 16.0 0.00 0.05 0.01 67 1015.4
20260901122954 66 277 12.0 16.0 0.00 0.05 0.00 68 1017.4
20260901122505 67 287 13.0 21.0 0.00 0.05 0.01 67 1015.3
20260901122454 66 306 13.0 20.0 0.00 0.05 0.00 66 1017.1
20260901122005 67 275 14.0 21.0 0.00 0.05 0.01 66 1015.3
20260901121954 67 289 14.0 20.0 0.00 0.05 0.00 65 1017.1
20260901121505 67 286 14.0 17.0 0.00 0.05 0.01 67 1015.3
20260901121454 67 285 14.0 19.0 0.00 0.05 0.00 66 1017.0
20260901121005 67 300 14.0 17.0 0.00 0.05 0.01 67 1015.2
20260901120953 67 302 15.0 19.0 0.00 0.06 0.00 67 1017.0
20260901120506 67 290 14.0 17.0 0.00 0.06 0.01 67 1015.2
20260901120453 66 306 15.0 19.0 0.00 0.06 0.00 66 1017.1
20260901120006 67 286 16.0 20.0 0.00 0.06 0.01 67 1015.3
20260901120000 67 304 16.0 19.0 0.00 0.06 0.00 66 1017.3
20260901115506 67 264 17.0 23.0 0.00 0.06 0.01 67 1015.2
20260901115005 67 262 14.0 23.0 0.00 0.06 0.01 68 1015.2
20260901114954 67 269 15.0 22.0 0.00 0.06 0.00 66 1017.0
20260901114454 67 311 14.0 20.0 0.00 0.06 0.00 68 1017.0
20260901114005 67 247 17.0 22.0 0.00 0.06 0.01 67 1015.2
20260901113505 68 252 16.0 22.0 0.00 0.07 0.01 67 1015.2
20260901113453 68 296 16.0 22.0 0.00 0.07 0.00 66 1017.1
20260901113005 68 262 14.0 20.0 0.00 0.07 0.01 71 1015.0
20260901112954 68 297 15.0 21.0 0.00 0.07 0.00 69 1016.8
20260901112505 66 272 16.0 19.0 0.00 0.07 0.01 69 1015.1
20260901112005 66 284 18.0 21.0 0.00 0.07 0.01 67 1015.2
20260901111953 66 304 19.0 22.0 0.00 0.07 0.00 68 1017.1
20260901111506 67 281 17.0 23.0 0.00 0.07 0.01 68 1015.3
20260901111453 67 257 18.0 24.0 0.00 0.07 0.00 67 1016.9
20260901111006 66 289 17.0 23.0 0.00 0.07 0.01 70 1015.1
20260901110954 66 251 16.0 24.0 0.00 0.07 0.00 67 1016.8
20260901110506 65 288 15.0 19.0 0.00 0.07 0.01 71 1015.0
20260901110454 65 290 15.0 20.0 0.00 0.07 0.00 71 1016.8
20260901110005 65 258 15.0 19.0 0.00 0.07 0.01 71 1015.1
20260901110000 65 291 15.0 20.0 0.00 0.07 0.00 70 1016.9
20260901105505 65 260 14.0 18.0 0.00 0.07 0.01 70 1015.1
20260901105453 65 272 14.0 18.0 0.00 0.07 0.00 69 1016.7
20260901105005 66 275 12.0 18.0 0.00 0.07 0.01 71 1015.1
20260901104957 65 281 12.0 18.0 0.00 0.07 0.00 70 1016.8
20260901104505 65 290 12.0 18.0 0.00 0.07 0.01 70 1015.1
20260901104454 65 272 13.0 19.0 0.00 0.07 0.00 71 1016.8
20260901104005 65 281 14.0 19.0 0.00 0.07 0.01 70 1015.0
20260901103953 65 267 15.0 19.0 0.00 0.07 0.00 70 1016.8
20260901103005 66 314 16.0 20.0 0.00 0.07 0.01 68 1015.0
20260901102953 65 290 16.0 19.0 0.00 0.07 0.00 68 1016.6
20260901102454 66 295 18.0 21.0 0.00 0.07 0.00 68 1016.8
20260901102005 66 303 18.0 21.0 0.00 0.07 0.01 67 1014.8
20260901101954 66 278 19.0 21.0 0.00 0.07 0.00 67 1016.4
20260901101505 66 284 17.0 21.0 0.01 0.07 0.01 68 1014.8
20260901101453 66 288 18.0 21.0 0.00 0.07 0.00 68 1016.6
20260901100954 66 280 19.0 21.0 0.00 0.07 0.00 67 1016.7
20260901100505 66 257 19.0 21.0 0.01 0.07 0.01 71 1014.6
20260901100454 66 249 19.0 22.0 0.00 0.07 0.00 68 1016.3
20260901100005 66 279 17.0 21.0 0.01 0.07 0.01 71 1014.8
20260901100000 66 250 17.0 22.0 0.00 0.07 0.00 70 1016.4
20260901095506 65 274 16.0 22.0 0.01 0.07 0.01 71 1014.7
20260901095454 65 276 17.0 21.0 0.00 0.07 0.00 71 1016.5
20260901095005 65 297 16.0 22.0 0.01 0.07 0.01 71 1014.7
20260901094953 65 294 17.0 21.0 0.00 0.07 0.00 70 1016.5
20260901094505 65 291 16.0 20.0 0.01 0.07 0.01 72 1014.8
20260901094454 65 299 17.0 21.0 0.00 0.07 0.00 72 1016.3
20260901094005 65 269 16.0 21.0 0.01 0.07 0.01 73 1014.7
20260901093954 65 297 16.0 22.0 0.00 0.07 0.00 73 1016.6
20260901093505 66 278 17.0 21.0 0.01 0.07 0.01 73 1014.7
20260901093005 66 299 17.0 22.0 0.01 0.07 0.01 72 1014.6
20260901092954 65 269 18.0 22.0 0.00 0.07 0.00 71 1016.5
20260901092505 66 305 17.0 22.0 0.01 0.07 0.01 72 1014.6
20260901092005 66 298 16.0 22.0 0.01 0.07 0.01 72 1014.5
20260901091957 65 301 15.0 22.0 0.00 0.07 0.00 72 1016.3
20260901091454 66 293 15.0 17.0 0.00 0.07 0.00 72 1016.5
20260901091006 66 285 13.0 19.0 0.00 0.06 0.00 72 1014.6
20260901090954 66 291 14.0 17.0 0.00 0.07 0.00 70 1016.1
20260901090506 66 280 13.0 19.0 0.00 0.06 0.00 75 1014.4
20260901090454 66 298 13.0 17.0 0.00 0.07 0.00 72 1016.0
20260901090005 66 283 13.0 17.0 0.00 0.06 0.00 75 1014.6
20260901085959 66 310 13.0 17.0 0.00 0.07 0.00 75 1016.3
20260901085506 65 289 14.0 17.0 0.00 0.06 0.00 74 1014.5
20260901085453 65 291 14.0 16.0 0.00 0.07 0.00 74 1016.3
20260901084954 65 302 15.0 17.0 0.00 0.07 0.00 74 1016.1
20260901084454 65 323 15.0 17.0 0.00 0.07 0.00 73 1016.2
20260901084006 65 263 14.0 23.0 0.00 0.06 0.00 73 1014.5
20260901083954 65 313 15.0 22.0 0.00 0.07 0.00 72 1015.9
20260901083505 65 261 14.0 23.0 0.00 0.06 0.00 75 1014.5
20260901083454 65 299 15.0 24.0 0.00 0.07 0.00 75 1016.1
20260901083005 65 272 17.0 23.0 0.00 0.06 0.00 74 1014.5
20260901082954 65 272 17.0 24.0 0.00 0.07 0.00 74 1016.2
20260901082505 65 262 17.0 23.0 0.00 0.06 0.00 74 1014.4
20260901082454 65 275 17.0 24.0 0.00 0.07 0.00 73 1016.3
20260901082005 65 270 12.0 17.0 0.00 0.06 0.00 76 1014.3
20260901081954 65 283 13.0 17.0 0.00 0.07 0.00 75 1016.0
20260901081506 64 291 12.0 17.0 0.00 0.06 0.00 77 1014.2
20260901081453 64 284 13.0 16.0 0.00 0.07 0.00 77 1016.1
20260901081005 64 308 14.0 17.0 0.00 0.06 0.00 76 1014.3
20260901080505 64 299 15.0 17.0 0.00 0.06 0.00 77 1014.3
20260901080454 64 314 15.0 17.0 0.00 0.07 0.00 77 1016.0
20260901080005 64 276 15.0 18.0 0.00 0.06 0.00 77 1014.4
20260901080000 64 302 15.0 18.0 0.00 0.07 0.00 75 1015.9
20260901075505 64 274 13.0 18.0 0.00 0.06 0.00 79 1014.3
20260901074953 63 305 11.0 15.0 0.00 0.07 0.00 79 1016.0
20260901074506 63 304 11.0 14.0 0.00 0.06 0.00 80 1014.3
20260901074454 63 293 12.0 15.0 0.00 0.07 0.00 79 1016.1
20260901074006 63 294 11.0 14.0 0.00 0.06 0.00 81 1014.4
20260901073954 63 295 11.0 15.0 0.00 0.07 0.00 80 1016.0
20260901073505 63 257 11.0 14.0 0.00 0.06 0.00 81 1014.3
20260901073454 63 276 12.0 17.0 0.00 0.07 0.00 81 1016.1
20260901073005 63 243 12.0 15.0 0.00 0.06 0.00 81 1014.3
20260901072954 63 287 12.0 17.0 0.00 0.07 0.00 80 1016.0
20260901072505 63 265 11.0 15.0 0.00 0.06 0.00 81 1014.3
20260901072454 63 294 11.0 15.0 0.00 0.07 0.00 81 1016.1
20260901072005 63 266 11.0 15.0 0.00 0.06 0.00 81 1014.2
20260901071954 63 280 12.0 15.0 0.00 0.07 0.00 82 1016.1
20260901071505 63 265 12.0 15.0 0.00 0.06 0.00 81 1014.2
20260901071005 63 271 10.0 15.0 0.00 0.06 0.00 81 1014.1
20260901070954 63 300 11.0 14.0 0.00 0.07 0.00 81 1015.8
20260901070454 63 301 11.0 18.0 0.00 0.07 0.00 82 1015.8
20260901070005 63 254 10.0 19.0 0.00 0.06 0.00 83 1014.1
20260901070000 63 290 10.0 18.0 0.00 0.07 0.00 82 1016.0
20260901065505 62 250 9.0 11.0 0.00 0.06 0.00 84 1014.1
20260901065453 62 288 9.0 11.0 0.00 0.07 0.00 84 1015.8
20260901065005 62 276 11.0 16.0 0.00 0.06 0.00 84 1013.9
20260901064953 62 286 11.0 17.0 0.00 0.07 0.00 84 1015.7
20260901064505 62 298 12.0 17.0 0.00 0.06 0.00 84 1013.9
20260901064454 62 292 13.0 17.0 0.00 0.07 0.00 84 1015.6
20260901064006 62 288 12.0 17.0 0.00 0.06 0.00 84 1013.8
20260901063953 61 321 12.0 17.0 0.00 0.07 0.00 84 1015.5
20260901063505 62 295 11.0 15.0 0.00 0.06 0.00 84 1013.9
20260901063005 61 302 12.0 17.0 0.00 0.06 0.00 85 1013.8
20260901062505 61 302 13.0 17.0 0.00 0.06 0.00 85 1013.7
20260901062005 61 304 12.0 17.0 0.00 0.06 0.00 85 1013.8
20260901061505 61 311 12.0 15.0 0.00 0.06 0.00 86 1013.8
20260901061453 61 294 12.0 15.0 0.00 0.07 0.00 86 1015.6
20260901061005 61 285 12.0 15.0 0.00 0.06 0.00 87 1013.5
20260901060954 61 290 12.0 15.0 0.00 0.07 0.00 87 1015.6
20260901060505 60 288 11.0 12.0 0.00 0.06 0.00 88 1013.7
20260901060454 60 303 10.0 15.0 0.00 0.07 0.00 88 1015.4
20260901060005 60 283 10.0 12.0 0.00 0.06 0.00 88 1013.7
20260901060000 60 286 9.0 13.0 0.00 0.07 0.00 88 1015.4
20260901055505 60 264 8.0 10.0 0.00 0.06 0.00 88 1013.6
20260901055453 60 252 8.0 12.0 0.00 0.07 0.00 88 1015.5
20260901055005 60 263 8.0 12.0 0.00 0.06 0.00 88 1013.6
20260901054954 60 249 8.0 12.0 0.00 0.07 0.00 88 1015.6
20260901054454 60 268 9.0 12.0 0.00 0.07 0.00 89 1015.3
20260901054005 60 239 9.0 11.0 0.00 0.06 0.00 89 1013.4
20260901053954 60 298 9.0 11.0 0.00 0.07 0.00 90 1015.2
20260901053505 60 242 8.0 11.0 0.00 0.06 0.00 89 1013.4
20260901052954 60 275 8.0 11.0 0.00 0.07 0.00 91 1015.2
20260901051954 60 279 8.0 10.0 0.00 0.07 0.00 92 1015.2
20260901051454 59 253 8.0 10.0 0.00 0.07 0.00 93 1015.1
20260901051005 59 260 7.0 9.0 0.00 0.06 0.00 91 1013.2
20260901050954 59 270 7.0 9.0 0.00 0.07 0.00 93 1015.0
20260901050504 59 257 6.0 8.0 0.00 0.06 0.00 91 1013.1
20260901050453 59 289 6.0 8.0 0.00 0.07 0.00 93 1014.9
20260901050005 59 264 6.0 7.0 0.00 0.06 0.00 92 1013.0
20260901050000 59 274 5.0 7.0 0.00 0.07 0.00 93 1015.0
20260901045505 58 261 6.0 7.0 0.00 0.06 0.00 92 1012.9
20260901045454 58 256 6.0 7.0 0.00 0.07 0.00 93 1014.8
20260901045005 58 274 6.0 7.0 0.00 0.06 0.00 92 1012.7
20260901044953 58 251 6.0 7.0 0.00 0.07 0.00 93 1015.1
20260901044506 58 283 6.0 7.0 0.00 0.06 0.00 92 1012.9
20260901044454 58 255 6.0 7.0 0.00 0.07 0.00 93 1015.0
20260901044005 58 282 6.0 8.0 0.00 0.06 0.00 92 1012.9
20260901043954 58 258 6.0 8.0 0.00 0.07 0.00 94 1014.6
20260901043505 58 278 7.0 8.0 0.00 0.06 0.00 92 1012.9
20260901043454 58 271 7.0 8.0 0.00 0.07 0.00 94 1014.7
20260901043005 58 252 8.0 8.0 0.00 0.06 0.00 92 1012.7
20260901042953 58 270 8.0 9.0 0.00 0.07 0.00 94 1014.8
20260901042505 58 263 7.0 8.0 0.00 0.06 0.00 92 1012.5
20260901042005 58 285 4.0 8.0 0.00 0.06 0.00 92 1012.6
20260901041954 58 270 4.0 9.0 0.00 0.07 0.00 93 1014.5
20260901041505 58 243 2.0 5.0 0.00 0.06 0.00 91 1012.6
20260901041454 58 241 2.0 3.0 0.00 0.07 0.00 93 1014.5
20260901041005 58 250 1.0 3.0 0.00 0.06 0.00 91 1012.5
20260901040954 58 225 2.0 3.0 0.00 0.07 0.00 92 1014.4
20260901040505 58 248 1.0 2.0 0.00 0.06 0.00 91 1012.5
20260901040005 58 240 2.0 4.0 0.00 0.06 0.00 91 1012.3
20260901040000 58 254 2.0 4.0 0.00 0.07 0.00 92 1014.3
20260901035505 59 246 3.0 4.0 0.00 0.06 0.00 91 1012.2
20260901035454 59 290 3.0 4.0 0.00 0.07 0.00 92 1014.2
20260901035005 59 240 3.0 4.0 0.00 0.06 0.00 91 1012.4
20260901034954 59 278 3.0 4.0 0.00 0.07 0.00 92 1014.2
20260901034505 59 231 3.0 4.0 0.00 0.06 0.00 90 1012.3
20260901034453 59 264 4.0 7.0 0.00 0.07 0.00 92 1014.2
20260901034005 59 243 5.0 8.0 0.00 0.06 0.00 90 1012.2
20260901033954 59 258 5.0 8.0 0.00 0.07 0.00 91 1014.2
20260901033505 59 251 6.0 8.0 0.00 0.06 0.00 90 1012.2
20260901033454 59 253 7.0 8.0 0.00 0.07 0.00 92 1014.2
20260901033005 59 262 6.0 8.0 0.00 0.06 0.00 91 1012.2
20260901032954 59 248 6.0 8.0 0.00 0.07 0.00 93 1014.0
20260901032505 59 261 4.0 6.0 0.00 0.06 0.00 91 1012.1
20260901032006 59 235 3.0 4.0 0.00 0.06 0.00 91 1012.2
20260901031505 59 236 3.0 4.0 0.00 0.06 0.00 91 1012.0
20260901031005 59 232 3.0 4.0 0.00 0.06 0.00 91 1012.0
20260901030954 59 224 3.0 4.0 0.00 0.07 0.00 92 1013.9
20260901030505 59 228 3.0 4.0 0.00 0.06 0.00 91 1012.0
20260901030453 59 227 3.0 4.0 0.00 0.07 0.00 93 1014.0
20260901030005 59 235 3.0 4.0 0.00 0.06 0.00 91 1012.0
20260901025959 59 233 3.0 4.0 0.00 0.07 0.00 92 1014.0
20260901025505 59 247 4.0 5.0 0.00 0.06 0.00 91 1012.1
20260901025454 59 248 4.0 5.0 0.00 0.07 0.00 92 1014.1
20260901024954 59 256 5.0 6.0 0.00 0.07 0.00 92 1014.0
20260901024505 59 272 5.0 6.0 0.00 0.06 0.00 91 1012.1
20260901024453 59 254 5.0 6.0 0.00 0.07 0.00 92 1014.1
20260901023954 59 260 5.0 7.0 0.00 0.07 0.00 92 1014.3
20260901023505 60 252 6.0 7.0 0.00 0.06 0.00 91 1012.1
20260901023005 60 252 5.0 7.0 0.00 0.06 0.00 91 1012.0
20260901022954 60 245 5.0 7.0 0.00 0.07 0.00 92 1014.0
20260901022505 60 256 5.0 7.0 0.00 0.06 0.00 91 1012.0
20260901022454 60 238 4.0 7.0 0.00 0.07 0.00 92 1014.1
20260901022005 60 240 4.0 4.0 0.00 0.06 0.00 91 1011.9
20260901021954 60 249 4.0 5.0 0.00 0.07 0.00 92 1014.0
20260901021504 60 266 4.0 4.0 0.00 0.06 0.00 91 1011.9
20260901021454 60 254 4.0 4.0 0.00 0.07 0.00 92 1014.0
20260901020955 60 245 4.0 5.0 0.00 0.07 0.00 92 1013.9
20260901020505 61 289 4.0 5.0 0.00 0.06 0.00 92 1012.0
20260901020005 61 235 4.0 6.0 0.00 0.06 0.00 92 1012.1
20260901015504 61 236 5.0 8.0 0.00 0.06 0.00 92 1011.9
20260901015005 61 253 6.0 8.0 0.00 0.06 0.00 92 1012.1
20260901014505 61 275 6.0 7.0 0.00 0.06 0.00 92 1012.1
20260901014454 61 278 6.0 8.0 0.00 0.07 0.00 93 1014.1
20260901014005 61 288 5.0 7.0 0.00 0.06 0.00 92 1012.1
20260901013954 61 253 5.0 8.0 0.00 0.07 0.00 93 1014.0
20260901013454 61 237 4.0 5.0 0.00 0.07 0.00 92 1013.9
20260901013005 61 266 4.0 5.0 0.00 0.06 0.00 91 1011.9
20260901012953 61 255 4.0 5.0 0.00 0.07 0.00 92 1014.1
20260901012505 61 265 4.0 5.0 0.00 0.06 0.00 92 1012.0
20260901012005 61 258 5.0 7.0 0.00 0.06 0.00 92 1011.9
20260901011954 61 242 5.0 7.0 0.00 0.07 0.00 92 1014.0
20260901011505 61 245 5.0 7.0 0.00 0.06 0.00 92 1011.8
20260901010505 61 250 5.0 7.0 0.00 0.06 0.00 93 1011.9
20260901010005 62 263 6.0 7.0 0.00 0.06 0.00 93 1012.1